Location: Clacy-et-Thierret
(49.5443°N, 3.5714°E)
Time: 22:36:46
(UTC+00:00)

Daily predictions for brighter satellites

Satellite Brightness Start Highest point End
(mag) Time Altitude Azimuth Time Altitude Azimuth Time Altitude Azimuth
MOS 1 Rocket 4.1 20:27:43 10° SE 20:32:54 50° ENE 20:38:02 10° N
Cosmos 2333 Rocket 3.5 20:29:40 10° NNW 20:34:43 30° NE 20:39:45 10° ESE
Cosmos 2285 Rocket 4.3 20:28:32 10° SSW 20:34:53 80° WNW 20:41:20 10° NNE
Cosmos 841 Rocket 4.2 20:30:07 10° NNW 20:35:10 45° ENE 20:40:12 10° SE
Atlas Centaur 2 4.3 20:32:04 10° SW 20:37:21 19° S 20:42:36 10° SE
Cosmos 1441 Rocket 3.2 20:34:12 10° N 20:37:46 60° ENE 20:41:21 10° SSE
SL-16 R/B 2.6 20:32:21 10° NNW 20:37:57 56° NE 20:43:31 10° SE
Cosmos 1763 Rocket 3.9 20:34:06 10° NNW 20:39:20 65° WSW 20:44:28 10° S
ERS-1 Rocket 3.0 20:34:23 10° SSE 20:39:24 78° ENE 20:44:27 10° NNW
Cosmos 2369 4.3 20:33:55 10° NW 20:39:31 55° WSW 20:45:05 10° S
RESURS DK-1 3.4 20:37:35 10° NNW 20:41:20 34° NE 20:45:04 10° ESE
Resurs 01 Rocket 4.0 20:38:07 10° SW 20:41:29 21° W 20:44:53 10° NW
Cosmos 2082 Rocket 2.4 20:37:52 10° SSW 20:43:36 83° WNW 20:49:21 10° NNE
Spot 2 Rocket 3.6 20:38:59 10° SSE 20:43:59 66° ENE 20:49:03 10° N
Cosmos 1933 Rocket 3.7 20:41:19 10° N 20:45:46 84° W 20:50:11 10° S
Cosmos 1470 2.9 20:42:41 10° NNW 20:46:22 70° W 20:50:03 10° S
SPOT 5 3.2 20:44:29 10° S 20:48:42 55° W 20:53:01 10° NNW
Cosmos 1300 3.9 20:46:48 10° NNE 20:49:51 26° ENE 20:52:52 10° SE
Cosmos 1908 3.1 20:49:58 10° N 20:53:35 84° W 20:57:11 10° S
Cosmos 1346 Rocket 3.9 20:54:57 10° N 20:58:23 29° ENE 21:01:35 11° SE
Cosmos 1674 3.8 20:57:17 10° SSW 21:00:35 41° WNW 21:03:54 10° N
ATLAS 2AS CENTAUR R/B 3.2 20:53:56 10° NW 21:00:43 54° NE 21:07:14 10° ESE
Meteor 1-22 Rocket 4.3 20:56:59 10° N 21:02:35 75° ENE 21:08:23 10° SSE
Cosmos 468 Rocket 4.5 21:01:20 10° NNW 21:06:28 57° WSW 21:11:31 10° S
Ariane Rocket 3.1 21:03:26 10° SSE 21:08:30 84° WSW 21:13:39 10° NNW
Cosmos 1758 3.7 21:05:52 10° N 21:09:39 48° ENE 21:12:54 14° SSE
Cosmos 1842 4.5 21:07:16 10° SW 21:10:43 39° WNW 21:14:12 10° N
Meteor 1-4 Rocket 4.4 21:10:04 10° ESE 21:10:50 11° E 21:11:37 10° ENE
Cosmos 1356 Rocket 4.2 21:09:22 12° SSE 21:12:47 34° E 21:16:37 10° NNE
COSMOS 2406 3.9 21:11:13 10° SW 21:16:54 61° WNW 21:22:36 10° NNE
SPOT 3 Rocket 3.7 21:12:20 10° S 21:17:28 77° WSW 21:22:40 10° NNW
Cosmos 1850 Rocket 4.5 21:13:45 10° S 21:18:37 41° ESE 21:23:30 10° NE
Meteor 1-13 Rocket 4.4 21:13:40 10° SSW 21:19:29 82° WNW 21:25:13 10° N
Cosmos 1707 Rocket 4.1 21:16:10 13° SSE 21:19:53 42° E 21:24:05 10° NNE
SL-27 R/B 3.6 21:19:33 16° SE 21:20:20 18° ESE 21:22:18 10° ENE
ARIANE 5 R/B 4.1 21:17:31 10° ESE 21:20:57 25° ENE 21:24:29 10° N
Cosmos 1980 Rocket 4.2 21:17:45 10° NW 21:21:54 21° W 21:26:02 10° SSW
Cosmos 2322 Rocket 2.3 21:16:53 10° NNW 21:22:36 75° ENE 21:27:28 14° SE
S3M 4.2 21:16:15 10° NNW 21:22:40 80° W 21:28:58 10° S
Spot 1 4.4 21:19:34 10° NNE 21:23:58 56° ESE 21:28:33 10° S
Cosmos 1655 Rocket 4.1 21:23:22 10° S 21:29:43 72° E 21:36:07 10° NNE
SJ 16-02 2.6 21:28:53 16° SE 21:31:10 24° E 21:34:39 10° NE
Landsat 5 3.4 21:27:27 10° NNE 21:31:23 61° ESE 21:35:02 12° S
Cosmos 2278 4.3 21:25:51 10° NW 21:31:24 52° WSW 21:36:25 12° S
Cosmos 1741 Rocket 4.2 21:31:59 10° S 21:37:07 55° ESE 21:42:18 10° NNE
Tiangong 0.2 21:36:32 10° SW 21:37:23 11° SSW 21:37:28 11° SSW
USA 281 3.6 21:32:45 13° SE 21:38:33 59° NE 21:45:00 10° NNW
Cosmos 2266 Rocket 4.3 21:33:10 10° SSW 21:39:28 73° W 21:45:54 10° N
Cosmos 1400 Rocket 3.0 21:35:47 10° SSW 21:39:40 70° WNW 21:43:31 10° N
COSMOS 2428 4.3 21:35:36 10° NNW 21:40:28 28° NE 21:45:19 10° ESE
Cosmos 1733 Rocket 3.0 21:36:32 10° N 21:40:57 82° E 21:44:16 17° SSE
MetOp-A 4.1 21:37:25 15° SSE 21:41:44 86° WSW 21:47:02 10° NNW
Okean 3 3.8 21:39:26 18° SSE 21:42:13 45° E 21:46:12 10° NNE
GP-B 4.4 21:38:31 10° NNE 21:42:15 26° E 21:44:46 16° SE
Terra 3.1 21:38:32 10° SSW 21:42:48 34° W 21:47:07 10° NNW
Cosmos 968 Rocket 3.8 21:41:01 14° S 21:45:10 47° ESE 21:50:08 10° NNE
Cosmos 1814 Rocket 4.3 21:40:46 10° NNW 21:46:01 61° ENE 21:50:00 18° SE
SL-4 R/B 2.3 21:43:14 10° W 21:47:07 66° N 21:51:16 10° ENE
Cosmos 2228 Rocket 3.1 21:44:42 12° S 21:48:56 90° NW 21:53:32 10° N
Cosmos 2219 Rocket 2.7 21:45:42 10° NNW 21:51:17 55° NE 21:55:47 16° SE
Cosmos 1908 Rocket 4.4 21:48:08 10° N 21:52:13 37° ENE 21:54:53 19° SE
Cosmos 1315 Rocket 3.7 21:51:04 21° SE 21:53:03 33° E 21:56:39 10° NNE
ATLAS CENTAUR R/B 1.3 21:52:14 19° S 21:54:25 42° ESE 21:57:50 10° NE
Meteor 2-10 Rocket 4.2 21:50:24 10° NNW 21:55:56 56° W 22:00:34 13° S
SeaSat 1 4.5 21:53:05 10° SSW 21:56:32 19° WSW 21:59:59 10° WNW
Cosmos 1953 2.8 21:55:04 10° N 21:58:46 44° ENE 22:00:51 22° SE
Cosmos 1455 2.7 21:58:40 10° N 22:01:59 40° ENE 22:03:41 23° SE
H-2A R/B 3.6 21:59:30 17° ESE 22:02:16 35° ENE 22:06:09 10° N
Cosmos 1242 Rocket 3.7 22:04:20 17° E 22:04:34 17° E 22:06:31 10° NE
USA 234 3.6 21:59:32 10° ENE 22:06:03 69° NNW 22:12:32 10° WSW
Okean 1-7 3.3 22:04:58 23° SSE 22:07:29 53° E 22:11:42 10° NNE
BREEZE-M DEB (TANK) 2.9 22:06:16 10° W 22:08:18 33° SSW 22:09:09 28° SSE
CZ-2C R/B 3.8 22:04:40 10° NNE 22:09:00 54° E 22:11:36 23° S
Cosmos 2360 Rocket 2.4 22:08:44 10° NW 22:14:21 62° WSW 22:18:06 21° S
ALOS 2 4.0 22:11:53 15° ESE 22:14:42 29° ENE 22:18:31 10° N
RESURS DK-1 3.6 22:15:25 10° NW 22:19:00 30° WSW 22:21:10 18° SSW
Cosmos 2333 Rocket 2.5 22:13:43 10° NW 22:19:24 62° WSW 22:23:08 22° S
SL-16 R/B 3.6 22:16:57 10° NW 22:21:43 28° WSW 22:25:47 13° SSW
Cosmos 1300 4.4 22:21:34 10° NW 22:24:29 24° W 22:26:54 13° SW
Atlas Centaur 2 4.3 22:20:22 10° SW 22:25:09 17° SSW 22:25:49 16° S
EXPRESS MD2 1.7 22:24:43 10° W 22:26:59 85° NNW 22:27:54 30° E
OPS 8737 3.9 22:24:49 10° NW 22:27:45 82° SW 22:28:45 38° SE
SL-08 R/B 4.4 22:25:46 20° S 22:30:05 76° E 22:36:11 10° NNE
BREEZE-M DEB (TANK) 3.8 22:15:14 10° W 22:31:51 89° S 22:36:00 10° E
Aureole 3 4.1 22:30:50 17° SSW 22:33:39 51° WNW 22:38:13 10° N
Cosmos 1346 Rocket 4.4 22:30:55 10° NW 22:34:09 25° W 22:36:35 14° SW
Cosmos 1703 Rocket 3.6 22:32:44 27° S 22:35:06 68° E 22:39:33 10° NNE
Cosmos 1833 4.2 22:30:08 12° SSW 22:35:28 89° WNW 22:41:08 10° NNE
DNEPR-1 R/B 4.4 22:29:33 10° NW 22:36:24 78° SW 22:39:56 24° SSE
Meteor 1-4 Rocket 3.1 22:41:49 22° SW 22:43:17 40° WNW 22:46:10 10° N
Cosmos 839 Rocket 4.3 22:37:04 10° NW 22:43:56 62° WSW 22:47:42 24° SSE
Cosmos 1932 4.4 22:38:31 13° SSW 22:44:18 71° SE 22:50:33 10° NE
Cosmos 2322 3.7 22:40:11 10° NNW 22:45:54 80° ENE 22:49:29 24° SE
Cosmos 2237 Rocket 3.5 22:41:46 10° NNW 22:46:56 34° NE 22:52:02 10° ESE
BlueWalker 3 3.7 22:50:04 16° ESE 22:50:04 16° ESE 22:51:28 10° E
ATLAS 2AS CENTAUR R/B 3.2 22:45:08 10° NW 22:51:33 45° WSW 22:55:16 23° S
SL-27 R/B 4.2 22:50:57 10° WSW 22:53:09 22° WNW 22:55:27 10° N
Cosmos 2227 Rocket 4.3 22:54:08 10° ESE 22:55:38 11° E 22:57:08 10° ENE
ARIANE 5 R/B 3.4 22:54:58 24° SSW 22:57:09 41° W 23:01:16 10° NNW
PSLV R/B 4.2 22:56:36 10° N 23:00:34 60° WNW 23:02:51 23° SW
Okean 2 4.3 23:00:22 19° SW 23:02:53 41° WNW 23:06:43 10° N
Cosmos 2322 Rocket 3.9 23:01:57 10° NW 23:06:01 21° W 23:09:15 13° SW
Cosmos 1570 Rocket 4.1 23:01:12 10° NNW 23:06:33 73° WSW 23:09:22 28° S
PSLV R/B 4.3 23:03:35 10° NNE 23:07:32 37° E 23:08:58 28° SE
Cosmos 1703 4.0 23:06:48 30° SE 23:07:49 36° E 23:11:14 10° NNE
Cosmos 1745 Rocket 4.0 23:05:11 24° S 23:09:16 89° WNW 23:15:41 10° N
SJ 16-02 2.4 23:05:35 12° SW 23:09:17 41° WNW 23:13:25 10° N
Cosmos 1241 Rocket 4.5 23:04:14 10° SW 23:10:24 82° NW 23:16:42 10° NE
COSMOS 2455 3.5 23:08:59 26° SSE 23:11:38 39° ESE 23:17:11 10° NE
Cosmos 2297 Rocket 3.3 23:13:10 23° SE 23:15:22 30° ESE 23:20:12 10° NE
Nadezhda 1 Rocket 4.3 23:11:42 10° NNW 23:17:56 62° W 23:21:42 24° SSW
GP-B 4.2 23:15:28 10° NNW 23:19:31 36° W 23:22:05 19° SW
Cosmos 1408 1.9 23:22:14 59° SSW 23:22:43 83° W 23:25:43 10° N
USA 281 4.2 23:19:37 20° SSW 23:23:21 34° WSW 23:29:17 10° NW
COSMOS 2428 2.8 23:19:33 10° NNW 23:25:12 68° WSW 23:28:12 28° S
SL-4 R/B 2.1 23:22:04 10° WNW 23:26:08 80° NNE 23:30:26 10° ESE
GEOS 3 Rocket 4.1 23:24:44 10° NE 23:29:35 40° ESE 23:31:28 29° SSE
ATLAS CENTAUR R/B 3.2 23:29:12 10° W 23:32:12 25° NW 23:35:19 10° NNE
Cosmos 1782 Rocket 4.3 23:28:22 10° NNW 23:32:26 41° W 23:34:15 27° SW
Cosmos 1953 4.4 23:31:46 10° NW 23:34:14 17° W 23:35:58 13° WSW
Cosmos 2219 Rocket 3.4 23:30:08 10° NW 23:34:56 29° WSW 23:37:28 21° SW
Cosmos 1455 4.2 23:33:59 10° NW 23:36:06 15° W 23:37:25 13° WSW
Cosmos 1242 Rocket 4.0 23:35:32 17° W 23:36:31 20° WNW 23:38:40 10° NNW
H-2A R/B 3.9 23:35:29 22° SW 23:37:12 28° W 23:40:56 10° NW
Cosmos 2208 Rocket 4.3 23:32:10 10° NNW 23:37:14 53° WSW 23:39:34 30° SSW
Cosmos 1892 3.8 23:38:13 24° ESE 23:39:06 27° E 23:42:08 10° NNE
Cosmos 158 Rocket 4.3 23:34:32 10° NNW 23:39:44 55° WSW 23:42:07 30° S
Cosmos 371 Rocket 3.3 23:38:59 32° S 23:41:06 65° ESE 23:45:52 10° NNE
BREEZE-M DEB (TANK) 4.1 23:39:06 10° W 23:42:44 88° S 23:55:26 10° E
NOSS 8 (E) 4.3 23:45:42 39° SSW 23:46:55 78° SE 23:50:02 10° NE
Cosmos 773 Rocket 3.9 23:41:59 10° NNW 23:47:10 83° WSW 23:49:51 29° SSE
Cosmos 2151 Rocket 3.8 23:43:37 10° N 23:48:01 65° ENE 23:50:03 30° SSE
USA 234 4.3 23:42:24 10° ENE 23:48:36 47° N 23:54:47 10° WNW
ALOS 2 3.6 23:49:16 26° SW 23:50:57 35° W 23:55:00 10° NNW
GENESIS II 4.2 23:49:40 27° SW 23:51:28 67° NW 23:55:07 10° NE
Cosmos 2263 Rocket 4.3 23:51:08 10° ESE 23:53:17 12° E 23:55:26 10° ENE
Cosmos 1503 Rocket 4.1 23:51:55 30° S 23:54:32 66° ESE 23:59:49 10° NNE
Okean 2 Rocket 3.2 23:50:54 10° N 23:55:21 70° E 23:57:29 30° SSE
